Regional Weather Roundup
Issued by NWS Burlington, VT

Current Version | Previous Version | Text Only | Print | Product List | Glossary Off
Versions: 1 2 3 4 5 6 7 8 9 10 11 12 13 14 15 16 17 18 19 20 21 22 23 24 25 26 27 28 29 30 31 32 33 34 35 36 37 38 39 40 41 42 43 44 45 46 47 48 49 50

000
ASUS41 KBTV 232010
RWRBTV
VERMONT REGIONAL WEATHER ROUNDUP
NATIONAL WEATHER SERVICE BURLINGTON VT
400 PM EDT SAT JUL 23 2016

NOTE: "FAIR" INDICATES FEW OR NO CLOUDS BELOW 12,000 FEET WITH NO
SIGNIFICANT WEATHER AND/OR OBSTRUCTIONS TO VISIBILITY.

* THESE REPORTS ARE NOT UNDER NWS QUALITY CONTROL AND/OR DO NOT
  REPORT WEATHER SUCH AS PRECIPITATION AND FOG.

VTZ001>019-232100-
_____VERMONT_____


CITY           SKY/WX    TMP DP  RH WIND       PRES   REMARKS
BURLINGTON     TSTM      66  62  87 N20G31    29.87R FOG
MONTPELIER     FAIR      81  60  48 N12G23    29.83R
MORRISVILLE    HVY RAIN  64  60  87 N13G21    29.91R FOG
ST. JOHNSBURY*   N/A     67  61  81 MISG      29.81R
LYNDONVILLE*   HVY RAIN  64  61  92 N8        29.86R
MIDDLEBURY*    PTSUNNY   87  55  33 NW10G17   29.78R
RUTLAND*       FAIR      85  56  37 NW13G22   29.78R
SPRINGFIELD    FAIR      84  58  40 W12       29.76S
HIGHGATE*      HVY RAIN  64  63  97 CALM      29.87R
NEWPORT*       RAIN      63  61  95 SW5       29.86R
SUTTON*          N/A     61 N/A N/A MISG        N/A

_____LAKE CHAMPLAIN_____


CITY           SKY/WX    TMP DP  RH WIND       PRES   REMARKS
BURTON ISLAND*   N/A     66  64  94 NW1         N/A
COLCHESTER RF*   N/A     66  64  94 N24         N/A
DIAMOND ISL*     N/A     68  64  88 N40         N/A

$$

NYZ007-026>031-035-052-083-087-232100-
_____NORTHERN NEW YORK_____


CITY           SKY/WX    TMP DP  RH WIND       PRES   REMARKS
PLATTSBURGH    LGT RAIN  65  61  87 NW7       29.86R
SARANAC LAKE   PTSUNNY   73  60  63 MISG      29.89R THUNDER
MASSENA        CLOUDY    73  63  70 E7        29.88R
OGDENSBURG*    SUNNY     88  61  40 N13G20    29.83R
POTSDAM*       LGT RAIN  72  66  83 E12G17    29.87R
WATERTOWN      MOSUNNY   80  62  54 SW14G22   29.84F
FT DRUM        SUNNY     85  63  47 W16       29.83F
ALBANY         MOSUNNY   90  59  35 W14       29.80R
GLENS FALLS    MOSUNNY   85  62  46 SW10      29.76S THUNDER

$$
NHZ002-005-011-232100-
_____NEW HAMPSHIRE_____


CITY           SKY/WX    TMP DP  RH WIND       PRES   REMARKS
LEBANON        MOSUNNY   89  59  36 W16G24    29.74S
KEENE          CLOUDY    88  61  40 NW9       29.77S
MT WASHINGTON  TSTM      48  48 100 N21         N/A  VSB 1/16
PLYMOUTH       FAIR      82  66  59 NE6       29.74S
WHITEFIELD     TSTM      66  60  81 VRB3      29.85R VSB 1/2

$$

_____REGIONAL QUEBEC LOCATIONS_____


CITY           SKY/WX    TMP DP  RH WIND       PRES   REMARKS
MONTREAL       MOSUNNY   68  66  94 S9        29.83R
QUEBEC CITY    PTSUNNY   79  63  57 W14G21    29.71S
SHERBROOKE     LGT RAIN  68  66  94 W9        29.80R

_____REGIONAL ONTARIO LOCATIONS_____


CITY           SKY/WX    TMP DP  RH WIND       PRES   REMARKS
OTTAWA         PTSUNNY   79  61  53 NW16G23   29.84R

______KEY______
VSB  - VISIBILITY IN MILES
WCI  - WIND CHILL INDEX
HX   - HEAT INDEX
$$
NNNN



USA.gov is the U.S. government's official web portal to all federal, state and local government web resources and services.